{"data":{"norad_id":54146,"epoch":"2026-09-19T18:39:36.307584Z","epoch_age_seconds":84427,"freshness":"FRESH","line1":"1 54146U 22138AK  26262.77750356  .00000008  00000+0 -12712-4 0  9999","line2":"2 54146  87.9142 255.5646 0001956 105.2593 254.8757 13.20772835191795","mean_motion":13.20772835,"eccentricity":0.0001956,"inclination_deg":87.9142,"raan_deg":255.5646,"arg_perigee_deg":105.2593,"mean_anomaly_deg":254.8757,"bstar":-1.2712e-5,"rev_number":19179,"period_min":109.02707580293,"perigee_km":1180.2907549194,"apogee_km":1183.2481903314,"semimajor_km":7559.9064726254,"source":"CELESTRAK","updated_at":"2026-09-20T09:00:44.722206Z"}}